www.pogodaiklimat.ru

Погода и климат >> Архив погоды >> Германия >> Ufs Deutsche Bucht


ПОГОДА в Ufs Deutsche Bucht

  • Прогноз погоды в Ufs Deutsche Bucht
  • Монитор погоды в Ufs Deutsche Bucht
  • Климат города

АРХИВ ПОГОДЫ в Ufs Deutsche Bucht

Время (UTC), дата Ветер
(напр.,м/с)
 
Видим.   Явления Облачность Т
(С)
Тd
(С)
f
(%)
Тe
(С)
Тes
(С)
Комфортность P
(гПа)
Po
(гПа)
Тmin
(С)
Tmax
(С)
R
(мм)
R24
(мм)
S
(см)
11 18.06 ЮЗ 9 5000 м н/о +14.9 +14.4 97 +12 +12 1016.6 1016.6
12 18.06 ЮЗ 7 7000 м н/о +14.8 +14.7 99 +13 +13 1016.6 1016.6
13 18.06 ЮЗ 7 10 км н/о +15.2 +14.2 94 +13 +13 1016.9 1016.9
14 18.06 ЮЗ 6 10 км н/о +15.1 +14.0 93 +13 +13 1017.0 1017.0
15 18.06 ЮЗ 5 10 км н/о +15.1 +14.0 93 +14 +14 1017.0 1017.0
16 18.06 ЮЗ 5 10 км н/о +15.1 +14.1 94 +14 +14 1016.7 1016.7
17 18.06 ЮЗ 4 10 км н/о +15.0 +14.0 94 +14 +14 1017.0 1017.0
18 18.06 ЮЗ 4 10 км н/о +15.0 +14.2 95 +14 +14 1017.0 1017.0 +14.1 +15.3
19 18.06 ЮЗ 5 10 км н/о +15.0 +14.1 94 +13 +13 1017.0 1017.0
20 18.06 ЮЗ 7 10 км н/о +15.1 +14.1 94 +13 +13 1017.2 1017.2
21 18.06 ЮЗ 7 10 км н/о +15.1 +14.0 93 +13 +13 1017.7 1017.7
22 18.06 ЮЗ 7 10 км н/о +15.4 +13.7 90 +14 +14 1017.3 1017.3
23 18.06 ЮЗ 7 10 км н/о +15.2 +14.2 94 +13 +13 1017.0 1017.0
00 19.06 ЮЗ 7 10 км н/о +15.3 +14.2 93 +13 +13 1016.7 1016.7
01 19.06 ЮЗ 9 10 км н/о +15.3 +13.8 91 +13 +13 1016.4 1016.4
02 19.06 ЮЗ 9 10 км н/о +15.3 +13.9 91 +13 +13 1016.1 1016.1
03 19.06 ЮЗ 9 10 км н/о +15.2 +14.0 93 +13 +13 1016.3 1016.3
04 19.06 ЮЗ 8 10 км н/о +15.3 +14.2 93 +13 +13 1016.5 1016.5
05 19.06 ЮЗ 6 10 км н/о +15.3 +14.1 93 +14 +14 1017.1 1017.1
06 19.06 З 7 10 км н/о +15.2 +14.4 95 +13 +13 1017.7 1017.7 +14.9 +15.5
07 19.06 З 8 10 км н/о +15.4 +14.5 94 +13 +13 1018.5 1018.5
08 19.06 З 4 10 км н/о +16.0 +14.5 91 +15 +15 1019.4 1019.4
09 19.06 СЗ 6 10 км н/о +15.5 +13.6 88 +14 +14 1020.1 1020.1
10 19.06 СЗ 5 10 км н/о +15.3 +11.5 78 +14 +14 1020.6 1020.6
11 19.06 З 5 10 км н/о +15.3 +11.3 77 +14 +14 1021.3 1021.3
12 19.06 З 7 10 км н/о +15.3 +9.7 69 +14 +14 1021.7 1021.7
13 19.06 З 5 10 км н/о +15.3 +10.3 72 +14 +14 1022.0 1022.0
14 19.06 З 5 10 км н/о +15.3 +10.3 72 +14 +14 1022.1 1022.1
15 19.06 З 7 10 км н/о +15.2 +10.1 72 +13 +13 1022.3 1022.3
16 19.06 З 7 10 км н/о +15.2 +9.8 70 +13 +13 1022.5 1022.5
17 19.06 З 7 10 км н/о +15.1 +10.1 72 +13 +13 1022.6 1022.6
18 19.06 З 6 10 км н/о +15.1 +10.0 72 +14 +14 1022.6 1022.6 +15.0 +16.5
19 19.06 З 6 400 м н/о +15.0 +10.2 73 +13 +13 1022.6 1022.6
20 19.06 З 5 10 км н/о +14.8 +11.4 80 +13 +13 1022.8 1022.8
21 19.06 З 4 10 км н/о +14.8 +12.0 83 +14 +14 1023.0 1023.0
22 19.06 ЮЗ 3 10 км н/о +14.8 +12.2 84 +14 +14 1022.5 1022.5
23 19.06 Ю 3 10 км н/о +15.1 +12.1 82 +14 +14 1022.2 1022.2
00 20.06 Ю 5 10 км н/о +15.2 +12.6 84 +14 +14 1021.6 1021.6
01 20.06 Ю 6 10 км н/о +15.5 +13.6 88 +14 +14 1020.8 1020.8
02 20.06 Ю 7 10 км н/о +15.6 +13.7 88 +14 +14 1020.2 1020.2
03 20.06 Ю 8 10 км н/о +15.6 +14.5 93 +14 +14 1019.7 1019.7
04 20.06 ЮЗ 9 9000 м н/о +15.8 +14.6 93 +14 +14 1019.3 1019.3
15 20.06 З 10 5000 м н/о +16.4 +15.5 94 +15 +15 1016.8 1016.8
17 20.06 ЮЗ 11
{14}
10 км н/о +15.6 +14.5 93 +13 +13 1015.9 1015.9
16 20.06 З 11
{14}
10 км н/о +16.0 +15.0 94 +14 +14 1016.4 1016.4
18 20.06 ЮЗ 10
{14}
10 км н/о +15.3 +14.4 94 +13 +13 1015.5 1015.5 +15.2 +16.6
19 20.06 ЮЗ 9 10 км н/о +15.6 +14.8 95 +13 +13 1015.3 1015.3
20 20.06 З 8 10 км н/о +15.8 +14.9 94 +14 +14 1015.1 1015.1
21 20.06 З 7
{14}
7000 м н/о +15.6 +14.9 96 +14 +14 1014.9 1014.9
23 20.06 З 8
{13}
10 км н/о +15.4 +14.6 95 +13 +13 1014.4 1014.4
22 20.06 З 8 9000 м н/о +15.4 +14.7 96 +13 +13 1014.7 1014.7
00 21.06 СЗ 8
{14}
10 км н/о +14.6 +12.4 87 +12 +12 1014.0 1014.0
01 21.06 СЗ 6 10 км н/о +14.3 +11.8 85 +12 +12 1013.5 1013.5
02 21.06 З 8 10 км н/о +14.3 +10.6 78 +12 +12 1013.4 1013.4
03 21.06 З 8 10 км н/о +13.9 +9.9 77 +11 +11 1012.7 1012.7
05 21.06 З 9 10 км н/о +13.6 +9.2 75 +11 +11 1012.1 1012.1
04 21.06 СЗ 9 10 км н/о +13.8 +9.8 77 +11 +11 1012.3 1012.3
06 21.06 З 9 10 км н/о +13.6 +9.9 78 +11 +11 1011.8 1011.8 +13.5 +15.9
07 21.06 З 9 10 км н/о +13.6 +9.6 77 +11 +11 1011.5 1011.5
08 21.06 З 13
{19}
3700 м н/о +11.3 +9.6 89 +7 +7 1011.7 1011.7
09 21.06 СЗ 12
{19}
10 км н/о +12.5 +8.7 78 +9 +9 1011.7 1011.7
11 21.06 СЗ 10
{17}
7000 м н/о +11.6 +7.3 75 +8 +8 1013.6 1013.6
10 21.06 СЗ 13
{16}
10 км н/о +12.4 +8.1 75 +8 +8 1012.8 1012.8
12 21.06 СЗ 13
{19}
10 км н/о +12.1 +7.2 72 +8 +8 1014.1 1014.1
13 21.06 СЗ 13
{20}
3200 м н/о +11.8 +8.4 80 +8 +8 1015.0 1015.0
14 21.06 СЗ 14
{18}
900 м н/о +13.3 +8.9 75 +10 +10 1015.8 1015.8
15 21.06 СЗ 15
{20}
2600 м н/о +13.3 +7.8 69 +10 +10 1016.4 1016.4
17 21.06 СЗ 15
{19}
8000 м н/о +13.1 +7.1 67 +9 +9 1017.1 1017.1
16 21.06 СЗ 15
{18}
1200 м н/о +13.3 +7.9 70 +10 +10 1016.7 1016.7
18 21.06 СЗ 13
{20}
9000 м н/о +13.0 +7.5 69 +9 +9 1017.0 1017.0 +11.0 +13.9
19 21.06 З 14
{18}
10 км н/о +12.6 +9.0 79 +9 +9 1016.7 1016.7
20 21.06 СЗ 14
{20}
3100 м н/о +11.5 +8.9 84 +7 +7 1016.7 1016.7
21 21.06 СЗ 14
{20}
10 км н/о +12.3 +9.0 80 +8 +8 1016.3 1016.3
23 21.06 СЗ 14
{20}
10 км н/о +12.5 +8.6 77 +8 +8 1016.1 1016.1
22 21.06 СЗ 15
{21}
10 км н/о +12.6 +8.5 76 +8 +8 1016.3 1016.3
00 22.06 СЗ 13
{21}
4000 м н/о +12.0 +8.9 81 +8 +8 1016.0 1016.0
01 22.06 СЗ 14
{18}
10 км н/о +12.5 +8.1 75 +8 +8 1015.5 1015.5
02 22.06 СЗ 14
{20}
7000 м н/о +11.8 +9.5 86 +7 +7 1015.4 1015.4
03 22.06 СЗ 16
{20}
2500 м н/о +10.9 +8.1 83 +6 +6 1015.4 1015.4
04 22.06 СЗ 14
{21}
10 км н/о +11.3 +8.0 80 +7 +7 1015.6 1015.6
14 22.06 СЗ 13
{16}
2300 м н/о +13.1 +9.6 79 +9 +9 1021.9 1021.9
15 22.06 СЗ 13
{17}
10 км н/о +12.9 +9.8 81 +9 +9 1022.3 1022.3
16 22.06 СЗ 13
{17}
10 км н/о +12.8 +9.6 81 +9 +9 1022.3 1022.3
17 22.06 СЗ 13
{16}
10 км н/о +12.8 +9.0 78 +9 +9 1022.6 1022.6
18 22.06 СЗ 12
{17}
10 км н/о +12.6 +9.5 81 +9 +9 1022.5 1022.5 +11.0 +13.5
20 22.06 СЗ 12
{16}
10 км н/о +12.5 +8.5 77 +9 +9 1022.5 1022.5
19 22.06 СЗ 13
{16}
10 км н/о +12.5 +8.0 74 +9 +9 1022.5 1022.5
21 22.06 СЗ 13
{17}
10 км н/о +12.7 +8.7 77 +9 +9 1022.7 1022.7
22 22.06 СЗ 13
{19}
10 км н/о +12.9 +9.2 78 +9 +9 1022.7 1022.7
23 22.06 СЗ 13
{18}
10 км н/о +12.9 +10.7 86 +9 +9 1022.5 1022.5
00 23.06 СЗ 12
{19}
10 км н/о +12.9 +11.1 89 +9 +9 1022.5 1022.5
02 23.06 СЗ 12
{17}
9000 м н/о +12.3 +10.6 89 +8 +8 1022.3 1022.3
01 23.06 СЗ 11
{17}
10 км н/о +12.9 +10.7 86 +9 +9 1022.4 1022.4
03 23.06 СЗ 14
{18}
10 км н/о +12.7 +9.1 79 +9 +9 1022.3 1022.3
04 23.06 СЗ 13
{18}
10 км н/о +12.7 +9.4 80 +9 +9 1022.2 1022.2
05 23.06 СЗ 13
{17}
10 км н/о +12.8 +9.2 79 +9 +9 1022.4 1022.4
06 23.06 СЗ 12
{18}
10 км н/о +12.7 +8.6 76 +9 +9 1022.6 1022.6 +12.0 +13.2
08 23.06 СЗ 12
{15}
10 км н/о +12.8 +9.7 81 +9 +9 1023.0 1023.0
07 23.06 СЗ 12
{16}
10 км н/о +12.7 +9.2 79 +9 +9 1022.8 1022.8
09 23.06 СЗ 12
{17}
10 км н/о +12.8 +9.0 78 +9 +9 1023.2 1023.2
10 23.06 СЗ 12
{15}
10 км н/о +12.7 +9.7 82 +9 +9 1023.2 1023.2
11 23.06 СЗ 12
{16}
10 км н/о +13.1 +9.9 81 +10 +10 1023.6 1023.6
12 23.06 СЗ 12
{17}
10 км н/о +12.7 +10.1 84 +9 +9 1023.7 1023.7
14 23.06 СЗ 11
{14}
10 км н/о +12.8 +10.2 84 +9 +9 1023.6 1023.6
13 23.06 СЗ 11
{15}
9000 м н/о +12.6 +10.3 86 +9 +9 1023.8 1023.8
15 23.06 СЗ 10
{17}
10 км н/о +12.9 +10.2 84 +10 +10 1023.6 1023.6
16 23.06 СЗ 10
{13}
10 км н/о +12.9 +10.0 83 +10 +10 1023.3 1023.3
17 23.06 СЗ 10
{13}
10 км н/о +12.8 +10.0 83 +9 +9 1022.9 1022.9
18 23.06 СЗ 10
{17}
10 км н/о +12.8 +9.7 81 +9 +9 1022.6 1022.6 +12.3 +13.1
20 23.06 СЗ 9 10 км н/о +12.9 +9.9 82 +10 +10 1022.8 1022.8
19 23.06 СЗ 10
{13}
10 км н/о +12.9 +9.0 77 +10 +10 1022.7 1022.7
21 23.06 СЗ 9
{13}
10 км н/о +12.8 +10.3 85 +10 +10 1022.9 1022.9
22 23.06 СЗ 9 9000 м н/о +12.6 +10.4 86 +9 +9 1022.5 1022.5
23 23.06 СЗ 10
{14}
10 км н/о +12.4 +10.9 91 +9 +9 1022.3 1022.3
00 24.06 СЗ 10
{14}
10 км н/о +12.8 +10.3 85 +9 +9 1021.7 1021.7
02 24.06 СЗ 9
{13}
10 км н/о +12.5 +10.2 86 +9 +9 1021.3 1021.3
01 24.06 СЗ 10 10 км н/о +12.7 +10.3 85 +9 +9 1021.6 1021.6
03 24.06 СЗ 9
{13}
10 км н/о +12.6 +9.9 84 +9 +9 1021.0 1021.0
04 24.06 СЗ 8 10 км н/о +12.1 +11.0 93 +9 +9 1021.0 1021.0
16 24.06 СЗ 9 10 км н/о +13.4 +11.1 86 +10 +10 1021.1 1021.1
18 24.06 СЗ 8
{13}
10 км н/о +13.2 +11.5 89 +10 +10 1021.1 1021.1 +11.5 +13.4
20 24.06 СЗ 10
{13}
10 км н/о +13.3 +12.2 93 +10 +10 1021.1 1021.1
19 24.06 СЗ 9 10 км н/о +13.2 +11.9 92 +10 +10 1021.0 1021.0
21 24.06 СЗ 10
{13}
10 км н/о +13.3 +12.2 93 +10 +10 1021.0 1021.0
22 24.06 СЗ 9 10 км н/о +13.3 +12.3 94 +10 +10 1021.4 1021.4
00 25.06 СЗ 9
{13}
10 км н/о +13.3 +12.4 94 +10 +10 1021.2 1021.2
02 25.06 СЗ 10
{13}
10 км н/о +13.3 +11.8 91 +10 +10 1021.3 1021.3
03 25.06 СЗ 9
{13}
10 км н/о +13.1 +11.8 92 +10 +10 1021.6 1021.6
04 25.06 СЗ 10
{13}
10 км н/о +13.1 +11.3 89 +10 +10 1021.6 1021.6

 

Местоположение метеостанции Ufs Deutsche Bucht (Германия): широта 54.18 долгота 7.43 высота над уровнем моря 3 м.

В архиве по умолчанию представлена погода в Ufs Deutsche Bucht за последнюю неделю. Архивные данные за месяц целиком и за предыдущие месяцы, начиная с января 2011 года, Вы можете получить, выбрав интересующий диапазон дат из раскрывающегося списка и нажав кнопку "Ввод!".


*Определитесь, кто Вы:
робот инопланетянин человек

Внимание! Время в таблицах - всемирное. Для получения местного времени необходимо прибавить поправку, которая в Ufs Deutsche Bucht равна 1 ч.

Смотрите также архив погоды в соседних городах и на ближайших метеорологических станциях:

Погода в Helgoland (Германия) (31 км)
Погода в Norderney Island (Германия) (54 км)
Погода в Leuchtturm Alte Weser (Германия) (57 км)
Погода в Ufs Tw Ems (Германия) (70 км)
Погода в Wittmundhaven (Германия) (72 км)
Погода в St Peter-Ording (Германия) (78 км)
Погода в Cuxhaven (Германия) (90 км)
Погода в Emden-Flugplatz (Германия) (90 км)
Погода в Nordholz (Германия) (93 км)
Погода в Huibertgat (Нидерланды) (96 км)

Пояснения к столбцам:

Ветер - указаны скорость ветра в м/с - средняя за 10 мин, порывы в срок и между сроками (в фигурных скобках) и направление, откуда дует ветер: С - северный, СВ - северо-восточный, В - восточный, ЮВ - юго-восточный, Ю - южный, ЮЗ - юго-западный, З - западный, СЗ - северо-западный.
Видимость - горизонтальная дальность видимости в метрах или километрах. При видимости от 1 до 10 км при отсутствии осадков обычно наблюдается дымка, при ухудшении видимости до 1 км и менее - туман. В сухую погоду видимость может ухудшаться дымом, пылью или мглою.
Явления - указаны атмосферные явления, наблюдавшиеся в срок или в последний час перед сроком; фигурными скобками обозначены явления, наблюдавшиеся между сроками (за 1-3 часа до срока); квадратными скобками обозначены град или гололедные отложения с указанием их диаметра в мм.
Облачность - указаны через наклонную черту общая и нижняя облачность в баллах и высота нижней границы облаков в метрах; квадратными скобками обозначены формы облаков: Ci - перистые, Cs - перисто-слоистые, Cc - перисто-кучевые, Ac - высококучевые, As - высокослоистые, Sc - слоисто-кучевые, Ns - слоисто-дождевые, Cu - кучевые, Cb - кучево-дождевые. Подробнее классификацию облаков см. в Атласе облаков (PDF).
T - Температура воздуха - температура, измеренная на высоте 2 м над землей.
Td - Температура точки росы - температура, при понижении до которой содержащийся в воздухе водяной пар достигнет насыщения.
f - Относительная влажность воздуха - влажноcть воздуха, измеренная на высоте 2 м над землей.
Te - Эффективная температура - температура, которую ощущает одетый по сезону человек в тени. Характеристика душности погоды. При расчете учитывается влияние влажности воздуха и скорости ветра на теплоощущения человека.
Tes - Эффективная температура на солнце - температура, которую ощущает человек, с поправкой на солнечный нагрев. Характеристика знойности погоды. Зависит от высоты солнца над горизонтом, облачности и скорости ветра. Ночью, в пасмурную погоду, а также при ветре 12 м/с и более поправка равна нулю.
P - Атмосферное давление - приведенное к уровню моря атмосферное давление.
Po - Атмосферное давление - измеренное на уровне метеостанции атмосферное давление.
Tmin - Минимальная температура - минимум температуры воздуха на высоте 2 м над землей.
Tmax - Максимальная температура - максимум температуры воздуха на высоте 2 м над землей.
R - Количество осадков - Количество выпавших осадков за период времени, мм. При наведении курсора мыши на число - период времени, за который выпало указанное количество осадков.
R24 - Количество осадков - Количество выпавших осадков за 24 часа, мм.
S - Снежный покров - Высота снежного покрова, см. При наведении курсора мыши на число - состояние снежного покрова и степень покрытия местности в баллах.